File backup.txt content, last update Saturday October 31 2020, 12:47:06


1604113686 Temp=30.47*C Humidity=21.05% Pressure=102228.84Pa
1604113747 Temp=30.24*C Humidity=21.16% Pressure=102225.40Pa
1604113807 Temp=30.15*C Humidity=21.25% Pressure=102224.72Pa
1604113866 Temp=30.13*C Humidity=21.37% Pressure=102224.84Pa
1604113926 Temp=30.10*C Humidity=21.51% Pressure=102226.80Pa
1604113986 Temp=29.93*C Humidity=21.61% Pressure=102222.02Pa
1604114046 Temp=29.63*C Humidity=21.91% Pressure=102231.14Pa
1604114106 Temp=29.28*C Humidity=21.81% Pressure=102225.10Pa
1604114166 Temp=29.05*C Humidity=21.92% Pressure=102226.10Pa
1604114226 Temp=28.91*C Humidity=22.12% Pressure=102221.45Pa
1604114286 Temp=28.82*C Humidity=22.13% Pressure=102228.30Pa
1604114346 Temp=28.79*C Humidity=22.55% Pressure=102220.51Pa
1604114406 Temp=28.73*C Humidity=22.43% Pressure=102223.80Pa
1604114466 Temp=28.71*C Humidity=22.41% Pressure=102221.67Pa
1604114526 Temp=28.71*C Humidity=22.60% Pressure=102219.52Pa
1604114586 Temp=28.52*C Humidity=22.34% Pressure=102224.98Pa
1604114646 Temp=28.42*C Humidity=22.72% Pressure=102216.91Pa
1604114707 Temp=28.31*C Humidity=22.28% Pressure=102216.11Pa
1604114766 Temp=28.02*C Humidity=22.10% Pressure=102217.91Pa
1604114826 Temp=27.92*C Humidity=22.31% Pressure=102215.86Pa
1604114886 Temp=27.95*C Humidity=22.66% Pressure=102209.27Pa
1604114946 Temp=28.07*C Humidity=22.78% Pressure=102206.39Pa
1604115006 Temp=28.20*C Humidity=22.95% Pressure=102206.61Pa
1604115066 Temp=28.32*C Humidity=22.99% Pressure=102206.52Pa
1604115126 Temp=28.40*C Humidity=22.86% Pressure=102203.70Pa
1604115186 Temp=28.54*C Humidity=22.58% Pressure=102202.56Pa
1604115247 Temp=28.60*C Humidity=22.10% Pressure=102202.91Pa
1604115306 Temp=28.69*C Humidity=22.35% Pressure=102198.42Pa
1604115366 Temp=28.67*C Humidity=21.91% Pressure=102192.52Pa
1604115426 Temp=28.57*C Humidity=21.89% Pressure=102195.65Pa
1604115486 Temp=28.53*C Humidity=22.09% Pressure=102193.49Pa
1604115546 Temp=28.60*C Humidity=22.20% Pressure=102192.52Pa
1604115606 Temp=28.66*C Humidity=22.23% Pressure=102189.56Pa
1604115666 Temp=28.75*C Humidity=22.33% Pressure=102185.82Pa
1604115726 Temp=28.84*C Humidity=22.41% Pressure=102187.03Pa
1604115787 Temp=28.91*C Humidity=22.33% Pressure=102187.84Pa
1604115847 Temp=28.93*C Humidity=22.19% Pressure=102185.58Pa
1604115906 Temp=28.95*C Humidity=22.19% Pressure=102183.35Pa
1604115966 Temp=28.96*C Humidity=22.18% Pressure=102180.27Pa
1604116026 Temp=28.96*C Humidity=22.30% Pressure=102181.62Pa
Showing last 40 lines from file [/srv/app/pi-web01/chroot/pi-ws01/var/backup.txt] (60 total lines).

Station Logs

File Name
sensor.txt
backup.txt
outage.log
outlier.log
rrd.log
pi-solar.log
Display Limit